CAPE
421 222 193 106 41 0 0 0 0 0 0 0 0 0 0 0 0 0 0 0 0 0
229 85 136 40 0 0 0 0 0 0 0 0 0 0 0 0 0 0 0 0 0 0
166 40 27 4 0 0 0 0 0 0 0 0 0 0 0 0 0 0 0 0 0 0
151 127 147 53 0 0 0 0 0 0 0 0 0 0 0 0 5 9 6 8 5 2
143 143 99 15 19 14 25 13 6 20 12 9 17 31 47 63 84 109 63 25 30 27
160 177 159 16 9 24 19 6 9 19 22 51 42 65 47 39 44 92 95 86 64 63
269 189 105 22 46 41 17 26 47 46 51 50 79 54 49 48 59 42 74 73 76 57
242 138 77 69 90 70 56 52 26 27 42 50 9 51 35 39 44 23 27 15 51 46
196 69 71 77 30 51 96 33 47 44 10 0 0 31 9 0 2 0 0 25 16 3
212 86 66 51 66 94 34 1 9 0 0 0 2 5 0 0 0 0 0 1 3 0
72 61 77 70 70 44 0 1 0 0 0 0 0 0 0 0 0 0 0 0 0 0
63 92 72 65 69 1 0 0 0 0 0 0 0 0 0 0 0 0 0 0 0 0
100 92 85 108 57 0 0 0 0 0 0 0 0 0 0 0 0 0 0 0 0 0
91 107 112 3 0 0 0 0 0 0 0 0 0 0 0 0 0 0 0 0 0 0
CIN
-117 -129 -114 -127 -117 0 0 0 0 0 0 0 0 0 0 0 0 0 0 0 0 0
-154 -168 -117 -112 0 0 0 0 0 0 0 0 0 0 0 0 0 0 0 0 0 0
-165 -185 -169 -73 0 0 0 0 0 0 0 0 0 0 0 0 0 0 0 0 0 0
-175 -161 -118 -139 -8 0 0 0 0 0 0 0 0 0 0 0 -30 -24 -28 -58 -39 -49
-139 -117 -99 -141 -144 -112 -100 -93 -44 -19 -37 -4 -3 -2 -4 -13 -10 -1 -2 -12 -7 -3
-107 -82 -49 -82 -85 -61 -58 -66 -12 -5 0 -1 -1 -1 -2 -5 -1 -2 -2 -9 -2 -5
-69 -61 -41 -73 -40 -25 -26 -11 -6 -4 -11 -13 -4 -4 -4 -4 -11 -14 -25 -25 -15 -16
-35 -35 -53 -50 -12 -9 -8 -8 -7 -8 -6 -5 -1 -1 -1 -2 -6 -15 -7 -12 -1 0
-27 -61 -47 -23 -19 -4 0 0 0 0 0 0 0 -2 -2 0 -3 0 0 -1 -11 0
-21 -3 -3 -1 0 0 -1 -7 0 0 0 0 0 -1 -1 0 0 0 0 0 0 0
-33 -2 0 0 0 -1 0 0 0 0 0 0 0 0 0 0 0 0 0 0 0 0
-6 0 0 0 -2 -4 0 0 0 0 0 0 0 0 0 0 0 0 0 0 0 0
-1 0 -1 0 -4 0 0 0 0 0 0 0 0 0 0 0 0 0 0 0 0 0
-1 0 0 -18 0 0 0 0 0 0 0 0 0 0 0 0 0 0 0 0 0 0
Wind_Speed
33 35 38 41 nan nan nan nan nan nan nan nan nan nan nan nan nan nan nan nan nan nan
35 nan 41 nan nan nan nan nan nan nan nan nan nan nan nan nan nan nan nan nan nan nan
36 nan nan nan nan nan nan nan nan nan nan nan nan nan nan nan nan nan nan nan nan nan
37 42 47 nan nan nan nan nan nan nan nan nan nan nan nan nan nan nan nan nan nan nan
38 44 nan nan nan nan nan nan nan nan nan nan nan nan nan nan nan 60 nan nan nan nan
39 43 45 nan nan nan nan nan nan nan nan nan nan nan nan nan nan nan nan nan nan nan
43 47 52 nan nan nan nan nan nan nan nan nan nan nan nan nan nan nan nan nan nan nan
44 51 nan nan nan nan nan nan nan nan nan nan nan nan nan nan nan nan nan nan nan nan
54 nan nan nan nan nan nan nan nan nan nan nan nan nan nan nan nan nan nan nan nan nan
61 nan nan nan nan nan nan nan nan nan nan nan nan nan nan nan nan nan nan nan nan nan
nan nan nan nan nan nan nan nan nan nan nan nan nan nan nan nan nan nan nan nan nan nan
nan nan nan nan nan nan nan nan nan nan nan nan nan nan nan nan nan nan nan nan nan nan
64 nan nan 75 nan nan nan nan nan nan nan nan nan nan nan nan nan nan nan nan nan nan
nan 70 72 nan nan nan nan nan nan nan nan nan nan nan nan nan nan nan nan nan nan nan
Wind_Direction
292 290 290 294 nan nan nan nan nan nan nan nan nan nan nan nan nan nan nan nan nan nan
291 nan 295 nan nan nan nan nan nan nan nan nan nan nan nan nan nan nan nan nan nan nan
291 nan nan nan nan nan nan nan nan nan nan nan nan nan nan nan nan nan nan nan nan nan
293 299 300 nan nan nan nan nan nan nan nan nan nan nan nan nan nan nan nan nan nan nan
295 296 nan nan nan nan nan nan nan nan nan nan nan nan nan nan nan 308 nan nan nan nan
293 297 300 nan nan nan nan nan nan nan nan nan nan nan nan nan nan nan nan nan nan nan
293 294 296 nan nan nan nan nan nan nan nan nan nan nan nan nan nan nan nan nan nan nan
287 289 nan nan nan nan nan nan nan nan nan nan nan nan nan nan nan nan nan nan nan nan
290 nan nan nan nan nan nan nan nan nan nan nan nan nan nan nan nan nan nan nan nan nan
295 nan nan nan nan nan nan nan nan nan nan nan nan nan nan nan nan nan nan nan nan nan
nan nan nan nan nan nan nan nan nan nan nan nan nan nan nan nan nan nan nan nan nan nan
nan nan nan nan nan nan nan nan nan nan nan nan nan nan nan nan nan nan nan nan nan nan
293 nan nan 296 nan nan nan nan nan nan nan nan nan nan nan nan nan nan nan nan nan nan
nan 289 292 nan nan nan nan nan nan nan nan nan nan nan nan nan nan nan nan nan nan nan